Date,TemperatureHighF,TemperatureAvgF,TemperatureLowF,DewpointHighF,DewpointAvgF,DewpointLowF,HumidityHigh,HumidityAvg,HumidityLow,PressureMaxIn,PressureMinIn,WindSpeedMaxMPH,WindSpeedAvgMPH,GustSpeedMaxMPH,PrecipitationSumIn
2013-1-1,20,5,-1,12,1,-4,91,82,63,0.00,40.00,10,5,20,0.01
2013-1-2,20,7,0,3,-1,-4,87,71,44,0.00,40.00,9,6,17,0.00
2013-1-3,15,4,-6,-1,-4,-9,92,70,47,0.00,40.00,5,2,8,0.00
2013-1-4,23,9,0,0,-6,-13,63,49,32,0.00,40.00,9,2,20,0.00
2013-1-5,31,15,3,5,-1,-6,75,51,23,0.00,40.00,9,4,14,0.00
2013-1-6,27,19,7,6,-1,-4,62,42,26,0.00,40.00,7,2,11,0.00
2013-1-7,32,21,12,4,0,-5,52,40,25,0.00,40.00,10,3,14,0.00
2013-1-8,31,19,10,11,3,-8,72,51,33,0.00,40.00,7,3,11,0.00
2013-1-9,33,21,10,11,8,6,84,59,37,0.00,40.00,7,3,10,0.00
2013-1-10,34,24,14,18,8,1,72,53,26,0.00,40.00,27,6,39,0.00
2013-1-11,25,11,-1,18,5,-8,94,79,50,0.00,40.00,28,13,45,0.00
2013-1-12,12,-2,-10,-5,-9,-14,89,74,43,0.00,40.00,7,4,10,0.00
2013-1-13,2,-5,-11,-4,-9,-15,88,82,69,0.00,40.00,6,3,9,0.00
2013-1-14,13,-2,-10,4,-8,-14,88,79,45,0.00,40.00,9,2,17,0.01
2013-1-15,11,-1,-13,5,-7,-17,88,75,44,0.00,40.00,12,5,20,0.01
2013-1-16,26,11,-1,11,4,-4,91,74,46,0.00,40.00,7,3,15,0.00
2013-1-17,35,19,8,14,11,7,95,73,42,0.00,40.00,7,2,11,0.00
2013-1-18,33,20,11,14,11,9,95,69,41,0.00,40.00,8,3,14,0.00
2013-1-19,36,22,9,11,4,-4,73,48,24,0.00,40.00,8,4,13,0.00
2013-1-20,32,20,9,10,2,-5,71,47,27,0.00,40.00,7,3,12,0.00
2013-1-21,39,23,10,10,2,-3,62,41,22,0.00,40.00,11,6,19,0.00
2013-1-22,36,24,14,5,-1,-12,57,35,13,0.00,40.00,8,4,12,0.00
2013-1-23,39,25,14,3,-2,-10,45,31,13,0.00,40.00,6,2,9,0.00
2013-1-24,37,28,22,28,14,-4,100,60,28,0.00,40.00,8,2,17,0.00
2013-1-25,38,31,26,32,29,26,100,94,76,0.00,40.00,7,2,14,0.01
2013-1-26,32,29,27,31,29,26,100,99,96,0.00,40.00,7,3,10,0.04
2013-1-27,42,31,28,34,27,15,100,86,56,0.00,40.00,10,2,22,0.06
2013-1-28,32,22,14,31,21,10,99,94,67,0.00,40.00,13,4,23,0.10
2013-1-29,15,8,4,10,4,2,93,85,63,0.00,40.00,15,9,26,0.10
2013-1-30,19,12,4,16,7,2,95,83,63,0.00,40.00,18,10,34,0.00
2013-1-31,35,24,17,18,14,13,87,69,43,0.00,40.00,14,5,26,0.16